Regional Weather Roundup
Issued by NWS Kansas City/Pleasant Hill, MO

Home | Current Version | Previous Version | Text Only | Print | Product List | Glossary On
Versions: 1 2 3 4 5 6 7 8 9 10 11 12 13 14 15 16 17 18 19 20 21 22 23 24 25 26 27 28 29 30 31 32 33 34 35 36 37 38 39 40 41 42 43 44 45 46 47 48 49 50
000
ASUS43 KEAX 301910
RWREAX

WEATHER ROUNDUP FOR EASTERN KANSAS AND NORTHWEST MISSOURI
NATIONAL WEATHER SERVICE KANSAS CITY/PLEASANT HILL MO
200 PM CDT MON MAY 30 2016

KSZ040-057-103>105-MOZ028-029-037-043-302000-
...KANSAS CITY METROPOLITAN AREA...

CITY           SKY/WX    TMP DP  RH WIND       PRES   REMARKS
K.C. INTL      PTSUNNY   83  63  50 S10       29.99F
K.C. DOWNTOWN  CLOUDY    82  63  52 S10       29.99S
LEES SUMMIT    CLOUDY    79  64  60 S7        30.01S
OLATHE - IXD   TSTM      67  60  78 SE15G28   30.05R
OLATHE - OJC   LGT RAIN  65  57  75 S18G31    30.03R
LAWRENCE       SUNNY     84  66  54 S10       29.98F

$$

MOZ001>008-011>017-020>025-030>033-038>040-044>046-053-054-302000-
...NORTHERN AND CENTRAL MISSOURI...

CITY           SKY/WX    TMP DP  RH WIND       PRES   REMARKS
ST. JOSEPH     MOSUNNY   85  62  46 S10       29.96F
MOSBY          PTCLDY    82  63  51 SE9       30.00R
WARRENSBURG    CLOUDY    81  64  57 SE8       30.01S
WHITEMAN AFB   PTSUNNY   83  65  55 S8        30.00F
CLINTON        CLOUDY    81  68  65 SE5       30.02S
SEDALIA        CLOUDY    84  64  50 S12       30.03F
WARSAW         NOT AVBL
CHILLICOTHE      N/A     87  67  51 VRB6      29.99F HX  90
KIRKSVILLE     CLOUDY    85  65  51 S7        30.01F

$$

MOZ041-047>049-056>058-063>065-088>090-097-302000-
...EASTERN AND SOUTHERN MISSOURI...

CITY           SKY/WX    TMP DP  RH WIND       PRES   REMARKS
ST. LOUIS INTL PTSUNNY   88  58  36 SE5       30.03F
SPIRIT OF STL  MOSUNNY   89  62  40 CALM      30.01F
COLUMBIA       MOSUNNY   84  62  47 SE9       30.02F
JEFFERSON CITY CLOUDY    85  62  46 S8        30.01F
ROLLA          MOSUNNY   82  61  48 SE8       30.03F
SPRINGFIELD    CLOUDY    75  61  61 SW17      30.06S
BRANSON        LGT RAIN  72  66  83 W8        30.10S
JOPLIN         LGT RAIN  69  67  93 E3        30.10S
WEST PLAINS    PTSUNNY   81  62  52 SE7       30.08F

$$

IAZ060-094-KSZ022-034>040-054-083-096-NEZ052-066-093-302000-
...KANSAS...SOUTHEAST NEBRASKA AND IOWA...

CITY           SKY/WX    TMP DP  RH WIND       PRES   REMARKS
TOPEKA           N/A     83  64  52 SE12      29.97F
MANHATTAN      MOSUNNY   84  62  47 S12       29.95F
EMPORIA        MOSUNNY   82  61  48 S13       29.99F
CHANUTE        CLOUDY    75  65  70 S10       30.03F
WICHITA        MOSUNNY   82  62  50 S13       29.98F
OMAHA          PTSUNNY   84  63  49 SE9       29.93F
LINCOLN          N/A     86  64  47 S13       29.93F
FALLS CITY     MOSUNNY   86  67  52 S12       29.95F
LAMONI         MOSUNNY   83  65  54 S9        29.98F
DES MOINES     PTSUNNY   85  61  44 S12       29.96F

$$




USA.gov is the U.S. government's official web portal to all federal, state and local government web resources and services.